User: anonymous   Login
Location: Unspecified
(0.0000°N, 0.0000°E)
Time: 00:06:11
(UTC+00:00)
Language:

Intelsat V F2 - Orbit

View from above orbital plane
View from above orbital plane
View from above satellite
View from above satellite

Ground track
Ground track

The orbit data is extracted from the following two-line orbital elements,

1 12089U 80098A   18112.37279220 -.00000110 +00000-0 +00000-0 0  9993
2 12089 014.9272 351.3093 0012414 275.0337 275.1362 00.98891459104273
Epoch (UTC): 22 April 2018 08:56:49
Eccentricity: 0.0012414
inclination: 14.9272°
perigee height: 36125 km
apogee height: 36230 km
right ascension of ascending node: 351.3093°
argument of perigee: 275.0337°
revolutions per day: 0.98891459
mean anomaly at epoch: 275.1362°
orbit number at epoch: 10427

The dashed part of the orbit path shows where the satellite is in the earth's shadow,  

DLR